Home   Weather   50°40'N, 3°14'E   Past weeks
Flag for France

Past Weather in 50°40'N, 3°14'E, France — Yesterday and Last 2 Weeks

Now
52 °F

Drizzle. Fog.


Feels Like: 47 °F
Forecast: 59 / 50 °F
Wind: 15 mph from Northeast

Location: Lille Airport

Current Time: Oct 21, 2019 at 2:35:44 am

Latest Report: Oct 21, 2019 at 2:00 am


Visibility: 3 mi

Pressure: 29.80 "Hg

Humidity: 94%

Dew Point: 50 °F

Location of 50°40'N, 3°14'ELocation

Past Weather in 50°40'N, 3°14'E — Graph

°F

50°40'N, 3°14'E Temperature Yesterday

Maximum temperature yesterday: 57 °F (at 3:00 pm)
Minimum temperature yesterday: 48 °F (at 2:00 am)
Average temperature yesterday: 52 °F

High & Low Weather Summary for the Past Weeks

 TemperatureHumidityPressure
High73 °F (Oct 13, 2:00 pm)100% (Oct 6, 5:00 am)30.04 "Hg (Oct 6, 5:00 am)
Low46 °F (Oct 10, 7:00 am)55% (Oct 18, 4:30 pm)29.53 "Hg (Oct 18, 9:00 am)
Average57 °F84%29.78 "Hg
* Reported Oct 6 1:00 am — Oct 21 1:30 am, 50°40'N, 3°14'E. Weather by CustomWeather, © 2019

Note: Actual official high and low records may vary slightly from our data, if they occured in-between our weather recording intervals... More about our weather records

Advertising

50°40'N, 3°14'E Weather History for the Previous 24 Hours

Scroll right to see more
 ConditionsComfort  
Time TempWeatherWind HumidityBarometerVisibility
1:30 am
Mon, Oct 21
52 °FLight rain. Fog.13 mph94%29.80 "Hg2 mi
1:00 am52 °FLight rain. Mostly cloudy.13 mph94%29.80 "HgN/A
12:30 am52 °FLight rain. Mostly cloudy.13 mph94%29.80 "Hg4 mi
12:00 am52 °FLight rain. Fog.13 mph94%29.80 "Hg2 mi
11:30 pm
Sun, Oct 20
52 °FDrizzle. Fog.12 mph94%29.83 "Hg2 mi
11:00 pm54 °FMostly cloudy.10 mph82%29.83 "HgN/A
10:30 pm52 °FPartly cloudy.13 mph94%29.80 "Hg4 mi
10:00 pm54 °FDrizzle. Mostly cloudy.9 mph88%29.80 "Hg4 mi
9:30 pm54 °FMostly cloudy.8 mph88%29.80 "HgN/A
9:00 pm54 °FLight rain. Overcast.8 mph88%29.80 "Hg4 mi
8:30 pm54 °FDrizzle. Mostly cloudy.6 mph88%29.80 "Hg5 mi
8:00 pm54 °FLight rain. Mostly cloudy.7 mph88%29.80 "HgN/A
7:30 pm54 °FLight rain. Passing clouds.10 mph88%29.80 "HgN/A
7:00 pm55 °FLight rain. Mostly cloudy.7 mph82%29.80 "HgN/A
6:30 pm55 °FSunny.8 mph82%29.80 "Hg10 mi
6:00 pm55 °FMostly cloudy.8 mph82%29.77 "HgN/A
5:30 pm55 °FMostly cloudy.9 mph82%29.77 "HgN/A
5:00 pm55 °FOvercast.12 mph82%29.77 "HgN/A
4:30 pm55 °FMostly cloudy.10 mph82%29.77 "HgN/A
4:00 pm55 °FMostly cloudy.10 mph82%29.77 "HgN/A
3:30 pm55 °FBroken clouds.12 mph82%29.74 "HgN/A
3:00 pm57 °FBroken clouds.12 mph82%29.74 "HgN/A
2:30 pm55 °FMore clouds than sun.8 mph82%29.77 "HgN/A
2:00 pm55 °FDrizzle. Broken clouds.8 mph88%29.77 "HgN/A
1:30 pm54 °FLight rain. Overcast.7 mph94%29.77 "Hg5 mi
1:00 pm54 °FLight rain. Clear.8 mph94%29.77 "HgN/A
12:30 pm54 °FLight rain. Clear.8 mph88%29.74 "HgN/A
12:00 pm52 °FCool.6 mph94%29.77 "Hg6 mi
11:30 am52 °FLight rain. Clear.3 mph94%29.74 "Hg4 mi
11:00 am52 °FLight rain. Clear.3 mph94%29.74 "Hg4 mi
10:30 am50 °FLight rain. Fog.3 mph100%29.77 "Hg3 mi
10:00 am50 °FFog.2 mph100%29.74 "Hg2 mi
9:30 am50 °FFog.2 mph100%29.74 "Hg3 mi
9:00 am50 °FFog.2 mph94%29.74 "Hg2 mi
8:30 am50 °FFog.2 mph94%29.74 "Hg2 mi
8:00 am48 °FFog.2 mph100%29.74 "Hg3 mi
7:30 am50 °FFog.2 mph94%29.71 "Hg3 mi
7:00 am50 °FFog.2 mph94%29.74 "Hg3 mi
6:30 am50 °FFog.2 mph94%29.74 "Hg3 mi
6:00 am50 °FFog.1 mph94%29.71 "Hg3 mi
5:30 am48 °FClear.2 mph100%29.71 "Hg4 mi
5:00 am48 °FClear.2 mph100%29.71 "Hg4 mi
4:30 am50 °FClear.2 mph94%29.71 "Hg10 mi
4:00 am50 °FClear.2 mph94%29.71 "Hg10 mi
3:30 am50 °FClear.No wind94%29.71 "Hg10 mi
3:00 am50 °FClear.3 mph94%29.71 "Hg10 mi
2:30 am50 °FClear.3 mph94%29.71 "Hg10 mi
2:00 am48 °FClear.2 mph94%29.71 "Hg10 mi
Weather by CustomWeather, © 2019

See weather overview